When you browse on this site, cookies collect data to enhance your experience and personalize the content and advertising you see.
Visit our Privacy Policy to learn more. By continuing to use the site, you agree to this use of cookies and data.
  • In France
  • List of Countries
  • For 7 days
  • Water Temperature
  • Satellite Maps
  • Weather Map
  • Weather Widgets
  • user-avatar
    Login

    Hourly Weather Sydney

    Today, 24 March, Sunday

    Time Temperature Precipitation Wind Pressure Humidity
    00:00 +24°C° 0 mm 3 mps 758 mmHg 86%
    01:00 +24°C° 0 mm 3 mps 758 mmHg 87%
    02:00 +24°C° 0 mm 3 mps 758 mmHg 86%
    03:00 +24°C° 0 mm 2 mps 757 mmHg 85%
    04:00 +24°C° 0 mm 2 mps 757 mmHg 86%
    05:00 +24°C° 0 mm 2 mps 757 mmHg 85%
    06:00 +24°C° 0 mm 1 mps 757 mmHg 84%
    07:00 +24°C° 0 mm 1 mps 758 mmHg 83%
    08:00 +27°C° 0 mm 1 mps 758 mmHg 71%
    09:00 +29°C° 0 mm 1 mps 758 mmHg 60%
    10:00 +31°C° 0 mm 1 mps 758 mmHg 54%
    11:00 +31°C° 0 mm 3 mps 758 mmHg 50%
    12:00 +33°C° 0 mm 4 mps 757 mmHg 46%
    13:00 +34°C° 0 mm 5 mps 757 mmHg 41%
    14:00 +33°C° 0 mm 5 mps 756 mmHg 46%
    15:00 +30°C° 0 mm 5 mps 756 mmHg 51%
    16:00 +29°C° 0 mm 4 mps 756 mmHg 57%
    17:00 +28°C° 0 mm 3 mps 756 mmHg 62%
    18:00 +27°C° 0 mm 2 mps 757 mmHg 67%
    19:00 +26°C° 0 mm 2 mps 757 mmHg 72%
    20:00 +26°C° 0 mm 1 mps 757 mmHg 74%
    21:00 +26°C° 0 mm 1 mps 757 mmHg 75%
    22:00 +24°C° 0 mm 0 mps 758 mmHg 76%
    23:00 +23°C° 0.1 mm 0 mps 757 mmHg 78%

    Tomorrow, 25 March, Monday

    Time Temperature Precipitation Wind Pressure Humidity
    00:00 +23°C° 0.1 mm 0 mps 757 mmHg 79%
    01:00 +25°C° 0.1 mm 1 mps 757 mmHg 80%
    02:00 +24°C° 0.7 mm 1 mps 756 mmHg 81%
    03:00 +24°C° 0.7 mm 2 mps 756 mmHg 83%
    04:00 +24°C° 0.7 mm 2 mps 756 mmHg 84%
    05:00 +24°C° 0.4 mm 2 mps 756 mmHg 84%
    06:00 +24°C° 0.4 mm 2 mps 756 mmHg 84%
    07:00 +24°C° 0.4 mm 3 mps 756 mmHg 84%
    08:00 +24°C° 0.3 mm 3 mps 756 mmHg 83%
    09:00 +25°C° 0.3 mm 3 mps 756 mmHg 81%
    10:00 +25°C° 0.3 mm 4 mps 756 mmHg 79%
    11:00 +26°C° 0.5 mm 5 mps 756 mmHg 77%
    12:00 +26°C° 0.5 mm 7 mps 755 mmHg 74%
    13:00 +27°C° 0.5 mm 8 mps 755 mmHg 71%
    14:00 +27°C° 0.1 mm 8 mps 755 mmHg 70%
    15:00 +27°C° 0.1 mm 7 mps 755 mmHg 68%
    16:00 +28°C° 0.1 mm 7 mps 755 mmHg 67%
    17:00 +27°C° 0 mm 6 mps 756 mmHg 68%
    18:00 +27°C° 0 mm 5 mps 756 mmHg 69%
    19:00 +26°C° 0 mm 4 mps 757 mmHg 71%
    20:00 +26°C° 0 mm 4 mps 757 mmHg 72%
    21:00 +25°C° 0 mm 3 mps 758 mmHg 73%
    22:00 +24°C° 0 mm 3 mps 758 mmHg 74%
    23:00 +24°C° 0 mm 3 mps 759 mmHg 71%

    Day after tomorrow, 26 March, Tuesday

    Time Temperature Precipitation Wind Pressure Humidity
    00:00 +22°C° 0 mm 4 mps 759 mmHg 68%
    01:00 +22°C° 0 mm 4 mps 759 mmHg 65%
    02:00 +21°C° 0 mm 5 mps 759 mmHg 60%
    03:00 +20°C° 0 mm 6 mps 759 mmHg 56%
    04:00 +20°C° 0 mm 7 mps 760 mmHg 52%
    05:00 +18°C° 0 mm 7 mps 761 mmHg 50%
    06:00 +17°C° 0 mm 7 mps 762 mmHg 49%
    07:00 +16°C° 0 mm 7 mps 762 mmHg 47%
    08:00 +17°C° 0 mm 7 mps 763 mmHg 42%
    09:00 +18°C° 0 mm 7 mps 763 mmHg 37%
    10:00 +20°C° 0 mm 6 mps 763 mmHg 32%
    11:00 +22°C° 0 mm 6 mps 763 mmHg 30%
    12:00 +23°C° 0 mm 5 mps 763 mmHg 27%
    13:00 +25°C° 0 mm 4 mps 763 mmHg 25%
    14:00 +25°C° 0 mm 4 mps 763 mmHg 27%
    15:00 +23°C° 0 mm 4 mps 762 mmHg 29%
    16:00 +23°C° 0 mm 4 mps 762 mmHg 32%
    17:00 +22°C° 0 mm 4 mps 763 mmHg 37%
    18:00 +21°C° 0 mm 5 mps 764 mmHg 43%
    19:00 +20°C° 0 mm 5 mps 765 mmHg 49%
    20:00 +20°C° 0 mm 5 mps 766 mmHg 51%
    21:00 +19°C° 0 mm 4 mps 766 mmHg 54%
    22:00 +19°C° 0 mm 4 mps 767 mmHg 56%
    23:00 +19°C° 0 mm 4 mps 767 mmHg 58%

    27 March, Wednesday

    Time Temperature Precipitation Wind Pressure Humidity
    00:00 +19°C° 0 mm 3 mps 767 mmHg 59%
    01:00 +18°C° 0 mm 3 mps 767 mmHg 60%
    02:00 +18°C° 0 mm 3 mps 767 mmHg 60%
    03:00 +19°C° 0 mm 3 mps 767 mmHg 61%
    04:00 +19°C° 0 mm 3 mps 767 mmHg 61%
    05:00 +19°C° 0 mm 3 mps 767 mmHg 61%
    06:00 +19°C° 0 mm 2 mps 767 mmHg 62%
    07:00 +19°C° 0 mm 2 mps 768 mmHg 62%
    08:00 +20°C° 0 mm 2 mps 768 mmHg 60%
    09:00 +21°C° 0 mm 3 mps 768 mmHg 58%
    10:00 +22°C° 0 mm 3 mps 769 mmHg 56%
    11:00 +22°C° 0 mm 3 mps 768 mmHg 56%
    12:00 +22°C° 0 mm 4 mps 768 mmHg 56%
    13:00 +23°C° 0 mm 4 mps 767 mmHg 56%
    14:00 +23°C° 0 mm 4 mps 767 mmHg 56%
    15:00 +23°C° 0 mm 4 mps 766 mmHg 57%
    16:00 +23°C° 0 mm 4 mps 766 mmHg 57%
    17:00 +22°C° 0 mm 3 mps 766 mmHg 58%
    18:00 +22°C° 0 mm 3 mps 767 mmHg 59%
    19:00 +22°C° 0 mm 3 mps 767 mmHg 60%
    20:00 +22°C° 0 mm 3 mps 767 mmHg 61%
    21:00 +21°C° 0 mm 3 mps 767 mmHg 62%
    22:00 +21°C° 0 mm 2 mps 767 mmHg 63%
    23:00 +21°C° 0 mm 2 mps 767 mmHg 65%

    28 March, Thursday

    Time Temperature Precipitation Wind Pressure Humidity
    00:00 +21°C° 0 mm 2 mps 766 mmHg 67%
    01:00 +21°C° 0 mm 2 mps 765 mmHg 69%
    02:00 +21°C° 0.1 mm 2 mps 765 mmHg 72%
    03:00 +20°C° 0.1 mm 2 mps 765 mmHg 74%
    04:00 +20°C° 0.1 mm 2 mps 764 mmHg 77%
    05:00 +20°C° 0.2 mm 2 mps 764 mmHg 78%
    06:00 +20°C° 0.2 mm 2 mps 765 mmHg 79%
    07:00 +21°C° 0.2 mm 1 mps 765 mmHg 80%
    08:00 +23°C° 0 mm 2 mps 765 mmHg 73%
    09:00 +24°C° 0 mm 2 mps 765 mmHg 66%
    10:00 +26°C° 0 mm 2 mps 765 mmHg 60%
    11:00 +27°C° 0 mm 3 mps 764 mmHg 57%
    12:00 +28°C° 0 mm 3 mps 763 mmHg 54%
    13:00 +29°C° 0 mm 4 mps 762 mmHg 51%
    14:00 +28°C° 0 mm 5 mps 762 mmHg 52%
    15:00 +28°C° 0 mm 5 mps 761 mmHg 54%
    16:00 +28°C° 0 mm 6 mps 761 mmHg 56%
    17:00 +27°C° 0 mm 6 mps 761 mmHg 60%
    18:00 +26°C° 0 mm 6 mps 761 mmHg 65%
    19:00 +24°C° 0 mm 6 mps 762 mmHg 70%
    20:00 +23°C° 0 mm 5 mps 762 mmHg 72%
    21:00 +23°C° 0 mm 5 mps 762 mmHg 74%
    22:00 +23°C° 0 mm 5 mps 762 mmHg 76%
    23:00 +22°C° 0 mm 4 mps 761 mmHg 77%

    29 March, Friday

    Time Temperature Precipitation Wind Pressure Humidity
    00:00 +22°C° 0 mm 4 mps 761 mmHg 79%
    01:00 +22°C° 0 mm 3 mps 760 mmHg 80%
    02:00 +21°C° 0 mm 3 mps 760 mmHg 81%
    03:00 +21°C° 0 mm 3 mps 759 mmHg 82%
    04:00 +21°C° 0 mm 3 mps 759 mmHg 82%
    05:00 +21°C° 0 mm 3 mps 759 mmHg 82%
    06:00 +21°C° 0 mm 3 mps 759 mmHg 82%
    07:00 +21°C° 0 mm 3 mps 759 mmHg 82%
    08:00 +22°C° 0.1 mm 3 mps 759 mmHg 77%
    09:00 +24°C° 0.1 mm 3 mps 759 mmHg 71%
    10:00 +26°C° 0.1 mm 2 mps 759 mmHg 66%
    11:00 +27°C° 0.1 mm 2 mps 758 mmHg 62%
    12:00 +28°C° 0.1 mm 2 mps 757 mmHg 58%
    13:00 +30°C° 0.1 mm 1 mps 757 mmHg 54%
    14:00 +28°C° 0.9 mm 1 mps 756 mmHg 59%
    15:00 +27°C° 0.9 mm 1 mps 756 mmHg 64%
    16:00 +26°C° 0.9 mm 1 mps 756 mmHg 70%
    17:00 +25°C° 0.9 mm 2 mps 756 mmHg 72%
    18:00 +24°C° 0.9 mm 2 mps 756 mmHg 74%
    19:00 +23°C° 0.9 mm 2 mps 757 mmHg 76%
    20:00 +23°C° 0.4 mm 2 mps 757 mmHg 75%
    21:00 +21°C° 0.4 mm 2 mps 757 mmHg 74%
    22:00 +21°C° 0.4 mm 2 mps 757 mmHg 73%
    23:00 +20°C° 0 mm 2 mps 757 mmHg 76%
    Show more